[[{"header":{"parameterUnit":"m.s-1","parameterCategory":1,"la1":30.2991,"la2":30.254,"lo1":-89.0895,"lo2":-89.0444,"dy":0.0017,"dx":0.0017,"nx":28,"ny":28,"refTime":"2025-08-08T21:00:00:Z","depth":0,"parameterNumber":2,"parameterNumberName":"U-component_of_WINDS"},"data":[0,0,0,0,0,0,0,0,0,0,0,0,0,0,0,0,0,0,0,0,0,0,0,0,0,0,0,0,0,0,0,0,0,0,0,0,0,0,0,0,0,0,0,0,0,0,0,0,0,0,0,0,0,0,0,0,0,0,-3.3376,-3.3377,0,-3.3435,-3.3435,-3.3436,-3.3344,-3.334,-3.3337,-3.3334,-3.3401,-3.3405,-3.341,0,0,0,0,0,0,0,0,0,0,0,0,0,-3.3191,-3.3195,-3.3376,-3.3377,-3.3378,-3.3435,-3.3435,-3.3436,-3.3344,-3.334,-3.3336,-3.3333,-3.3399,-3.3405,-3.3411,0,0,0,0,0,0,0,0,0,0,0,0,0,-3.3263,-3.3196,-3.3376,-3.3338,-3.3336,-3.3434,-3.3435,-3.3436,-3.3345,-3.334,-3.3335,-3.3331,-3.3397,-3.3404,-3.3411,-3.3552,0,0,-3.3433,-3.3436,0,0,0,0,0,0,0,0,-3.3259,-3.327,-3.3343,-3.3341,-3.3338,-3.3377,-3.3394,-3.3475,-3.3346,-3.3342,-3.3334,-3.3328,-3.3397,-3.3404,-3.3426,-3.3555,-3.3558,-3.3434,-3.3438,-3.3441,-3.3443,0,0,0,0,0,0,0,-3.3254,-3.3267,-3.3399,-3.3344,-3.3341,-3.3321,-3.3326,-3.3409,-3.3396,-3.3342,-3.3335,-3.3343,-3.3395,-3.3419,-3.3427,-3.3559,-3.3434,-3.344,-3.3444,-3.3447,-3.3807,-3.3812,0,0,0,0,0,0,-3.3253,-3.3263,-3.3398,-3.3401,-3.3286,-3.3328,-3.3333,-3.3369,-3.3395,-3.3394,-3.3347,-3.3338,-3.3409,-3.3418,-3.3429,-3.3595,-3.3441,-3.3448,-3.3452,-3.3802,-3.3808,-3.3814,0,0,0,0,0,0,-3.3249,-3.3266,-3.3395,-3.3331,-3.3345,-3.3336,-3.3377,-3.3373,-3.3397,-3.3398,-3.3396,-3.3374,-3.3406,-3.3419,-3.3521,-3.3596,-3.3451,-3.3458,-3.3796,-3.3804,-3.3811,-3.3929,0,0,0,0,0,0,-3.3244,-3.3265,-3.3317,-3.3332,-3.3349,-3.3486,-3.3382,-3.3378,-3.3409,-3.3398,-3.3423,-3.3423,-3.3403,-3.3511,-3.3529,-3.3603,-3.3463,-3.3789,-3.3799,-3.3809,-3.3918,-3.394,-3.3958,0,0,0,0,0,-3.3238,-3.3349,-3.332,-3.3337,-3.3413,-3.349,-3.35,-3.3473,-3.3415,-3.3468,-3.3469,-3.3422,-3.3585,-3.3523,-3.3541,-3.3619,-3.3784,-3.3796,-3.3808,-3.3909,-3.3936,-3.3958,0,0,0,0,0,0,-3.3345,-3.335,-3.3318,-3.3437,-3.3463,-3.3474,-3.354,-3.3502,-3.3547,-3.3535,-3.3502,-3.3509,-3.3619,-3.3629,-3.356,-3.3757,-3.3675,-3.3691,-3.3746,-3.3771,-3.379,-3.3786,-3.3469,0,0,0,0,0,-3.3381,-3.3441,-3.3444,-3.3548,-3.3563,-3.355,-3.3582,-3.3559,-3.3586,-3.3597,-3.3606,-3.3636,-3.3694,-3.3733,-3.3786,-3.3919,-3.3924,-3.3982,-3.4002,-3.4018,-3.4033,-3.4105,-3.4131,-3.3853,-3.3853,-3.3852,0,0,-3.3459,-3.3469,-3.3509,-3.357,-3.3588,-3.3652,-3.356,-3.3632,-3.368,-3.3609,-3.3706,-3.3714,-3.3745,-3.3864,-3.3917,-3.3876,-3.4111,-3.4034,-3.4047,-3.4052,-3.412,-3.4146,-3.417,-3.3861,-3.3859,-3.3858,0,0,-3.3633,-3.3646,-3.3735,-3.3755,-3.3782,-3.3772,-3.3794,-3.3811,-3.3812,-3.3909,-3.3857,-3.3915,-3.4016,-3.404,-3.4066,-3.425,-3.4209,-3.4269,-3.4373,-3.4444,-3.4466,-3.4485,-3.4551,-3.4576,-3.4283,-3.4283,-3.4284,0,-3.3726,-3.3819,-3.3786,-3.3862,-3.389,-3.3827,-3.3918,-3.3939,-3.3984,-3.4007,-3.396,-3.4084,-3.4101,-3.4225,-3.427,-3.4292,-3.4317,-3.4266,-3.4465,-3.4484,-3.4501,-3.4564,-3.4589,-3.4291,-3.429,-3.4289,-3.4288,0,-3.3933,-3.3999,-3.4067,-3.411,-3.4146,-3.423,-3.4211,-3.4252,-3.4227,-3.4223,-3.4323,-3.4341,-3.4397,-3.4424,-3.4401,-3.4546,-3.4519,-3.447,-3.4387,-3.4536,-3.4594,-3.4618,-3.4301,-3.4298,-3.4296,-3.4294,0,0,-3.4175,-3.4198,-3.4224,-3.4243,-3.4269,-3.432,-3.4401,-3.4454,-3.4491,-3.4524,-3.4592,-3.4679,-3.4632,-3.4662,-3.4641,-3.4702,-3.4848,-3.4645,-3.4645,-3.4683,-3.501,-3.5048,-3.5076,-3.4821,-3.4825,-3.4829,-3.5008,0,-3.4349,-3.4486,-3.4459,-3.4594,-3.4655,-3.4596,-3.4667,-3.4692,-3.4691,-3.4744,-3.4744,-3.4805,-3.4739,-3.4757,-3.4815,-3.4818,-3.4914,-3.4805,-3.4886,-3.4889,-3.488,-3.5107,-3.5147,-3.5315,-3.503,-3.5034,-3.5037,0,-3.4569,-3.4609,-3.4749,-3.4766,-3.4791,-3.4854,-3.4901,-3.4952,-3.498,-3.4975,-3.5008,-3.4975,-3.5058,-3.4974,-3.5088,-3.5015,-3.5047,-3.5053,-3.5059,-3.5066,-3.4972,-3.5121,-3.5368,-3.5393,-3.5073,-3.507,-3.5067,0,-3.4732,-3.4821,-3.4917,-3.4935,-3.4956,-3.5003,-3.5015,-3.5037,-3.5071,-3.5113,-3.5135,-3.5186,-3.5215,-3.5257,-3.524,-3.518,-3.5358,-3.5272,-3.5358,-3.5359,-3.5399,-3.5396,-3.5655,-3.5419,-3.5418,-3.5418,-3.5417,0,-3.4929,-3.5017,-3.499,-3.5049,-3.5147,-3.5117,-3.5215,-3.522,-3.5241,-3.5302,-3.5255,-3.5314,-3.5287,-3.5344,-3.5332,-3.5429,-3.5442,-3.5442,-3.5438,-3.5447,-3.5447,-3.5467,-3.5455,-3.5424,-3.5423,-3.5422,-3.5421,0,-3.5128,-3.5113,-3.5213,-3.5225,-3.5231,-3.5303,-3.5314,-3.537,-3.5365,-3.5443,-3.5459,-3.5453,-3.5518,-3.5504,-3.5576,-3.5568,-3.569,-3.5671,-3.568,-3.5676,-3.5763,-3.5755,-3.6044,-3.6081,-3.582,-3.5823,-3.5825,0,-3.5254,-3.532,-3.5339,-3.5375,-3.539,-3.5449,-3.5483,-3.5456,-3.5494,-3.5531,-3.5583,-3.5644,-3.569,-3.5797,-3.58,-3.5856,-3.5838,-3.5935,-3.5846,-3.5853,-3.584,-3.5837,-3.5844,-3.5953,-3.5956,-3.5959,-3.5961,0,-3.548,-3.5469,-3.5519,-3.5566,-3.5607,-3.5644,-3.5676,-3.5709,-3.5685,-3.573,-3.5795,-3.5831,-3.5904,-3.5965,-3.6016,-3.6031,-3.5993,-3.5989,-3.6011,-3.6021,-3.6024,-3.6025,-3.5729,-3.5982,-3.598,-3.5979,-3.5977,-3.5977,-3.5647,-3.5703,-3.5726,-3.5783,-3.5804,-3.5835,-3.5889,-3.589,-3.5943,-3.5998,-3.598,-3.6055,-3.6082,-3.6147,-3.6167,-3.6226,-3.619,-3.6223,-3.6232,-3.624,-3.6251,-3.6014,-3.6236,-3.6235,-3.6234,-3.6234,-3.6233,0,-3.5871,-3.5882,-3.5935,-3.5981,-3.6026,-3.5984,-3.6018,-3.606,-3.6125,-3.6153,-3.62,-3.6275,-3.6334,-3.6342,-3.6398,-3.6445,-3.6429,-3.6461,-3.6457,-3.6461,-3.628,-3.6255,-3.6472,-3.6472,-3.6472,-3.6472,-3.6472,-3.6472,-3.5993,-3.6086,-3.6079,-3.6184,-3.6195,-3.6266,-3.6289,-3.6318,-3.634,-3.6426,-3.6474,-3.6478,-3.6499,-3.6556,-3.661,-3.6611,-3.6634,-3.6673,-3.6668,-3.6498,-3.6474,-3.6451,-3.6427,-3.6678,-3.6678,-3.6844,-3.6846,-3.6847]},{"header":{"parameterUnit":"m.s-1","parameterCategory":1,"la1":30.2991,"la2":30.254,"lo1":-89.0895,"lo2":-89.0444,"dy":0.0017,"dx":0.0017,"nx":28,"ny":28,"refTime":"2025-08-08T21:00:00:Z","depth":0,"parameterNumber":3,"parameterNumberName":"V-component_of_WINDS"},"data":[0,0,0,0,0,0,0,0,0,0,0,0,0,0,0,0,0,0,0,0,0,0,0,0,0,0,0,0,0,0,0,0,0,0,0,0,0,0,0,0,0,0,0,0,0,0,0,0,0,0,0,0,0,0,0,0,0,0,1.048,1.0481,0,1.057,1.0571,1.0572,1.0687,1.0688,1.069,1.0692,1.0778,1.0778,1.0779,0,0,0,0,0,0,0,0,0,0,0,0,0,1.0397,1.0398,1.048,1.0481,1.0482,1.057,1.0571,1.0573,1.0686,1.0689,1.0691,1.0693,1.0778,1.0778,1.0779,0,0,0,0,0,0,0,0,0,0,0,0,0,1.0455,1.0399,1.0479,1.0549,1.0557,1.057,1.0571,1.0573,1.0686,1.0689,1.0691,1.0694,1.0777,1.0778,1.0779,1.0729,0,0,1.0782,1.0782,0,0,0,0,0,0,0,0,1.0451,1.0458,1.0538,1.0545,1.0553,1.062,1.0574,1.0625,1.0685,1.0636,1.0692,1.0695,1.0723,1.0728,1.0739,1.0733,1.0736,1.0782,1.0782,1.0782,1.0783,0,0,0,0,0,0,0,1.0447,1.0454,1.0515,1.0539,1.0548,1.0574,1.0585,1.0584,1.0663,1.0641,1.065,1.0659,1.0727,1.0738,1.0742,1.0738,1.0782,1.0782,1.0783,1.0783,1.0692,1.0689,0,0,0,0,0,0,1.0434,1.045,1.0512,1.0518,1.0508,1.0573,1.0586,1.0596,1.0663,1.0676,1.0657,1.0664,1.0735,1.0741,1.0745,1.0689,1.0782,1.0783,1.0784,1.0695,1.0691,1.0688,0,0,0,0,0,0,1.0432,1.0438,1.0509,1.0487,1.0498,1.0572,1.0582,1.0596,1.0607,1.0675,1.0689,1.0653,1.0737,1.0744,1.0732,1.0693,1.0784,1.0784,1.0698,1.0694,1.0689,1.0576,0,0,0,0,0,0,1.0429,1.0437,1.042,1.0485,1.0498,1.0496,1.058,1.0596,1.0609,1.0619,1.0676,1.0688,1.074,1.073,1.0733,1.0696,1.0785,1.0702,1.0696,1.0691,1.0583,1.0568,1.0555,0,0,0,0,0,1.0425,1.0384,1.0419,1.0426,1.048,1.0493,1.0501,1.0564,1.0605,1.0588,1.0631,1.0686,1.0697,1.0728,1.0732,1.0695,1.0704,1.0698,1.0691,1.059,1.0571,1.0555,0,0,0,0,0,0,1.031,1.0394,1.0433,1.0412,1.0445,1.0513,1.0493,1.0542,1.0563,1.0571,1.0647,1.0658,1.0636,1.0665,1.0697,1.0648,1.0709,1.0703,1.063,1.0613,1.0599,1.0592,1.0786,0,0,0,0,0,1.0282,1.0289,1.0361,1.0335,1.035,1.0418,1.0426,1.0472,1.0509,1.0522,1.0565,1.0596,1.0607,1.0612,1.0626,1.0589,1.0601,1.0565,1.0551,1.0539,1.0532,1.0512,1.0496,1.0666,1.0666,1.0666,0,0,1.0224,1.0271,1.027,1.0313,1.0344,1.0346,1.0429,1.0429,1.043,1.0522,1.0513,1.0545,1.0584,1.0559,1.055,1.0582,1.0488,1.0531,1.052,1.052,1.0503,1.0487,1.0472,1.0662,1.0663,1.0663,0,0,1.012,1.0157,1.0139,1.0168,1.0215,1.0261,1.0256,1.0316,1.0341,1.0335,1.0403,1.0404,1.0422,1.0446,1.0461,1.0365,1.0414,1.0367,1.0292,1.0271,1.0258,1.0246,1.0209,1.0195,1.036,1.036,1.036,0,1.0042,1.0051,1.0122,1.0118,1.0133,1.0218,1.0198,1.0222,1.0269,1.0277,1.0313,1.0335,1.0368,1.0348,1.0324,1.0335,1.0329,1.036,1.0255,1.0244,1.0234,1.0199,1.0185,1.0354,1.0354,1.0355,1.0356,0,0.995,0.9955,0.9934,0.998,0.9993,0.998,1.0047,1.0051,1.0096,1.0137,1.0127,1.0169,1.0192,1.0191,1.0234,1.0176,1.0194,1.0241,1.0303,1.021,1.0178,1.0166,1.0345,1.0347,1.0349,1.035,0,0,0.9775,0.986,0.9851,0.9872,0.9929,0.9933,0.9922,0.9947,0.9947,0.9977,0.9968,0.9981,1.0024,1.0041,1.0087,1.007,0.9987,1.0119,1.0121,1.009,0.9922,0.9885,0.9868,1.0021,1.0019,1.0017,0.9918,0,0.9679,0.9669,0.9733,0.9704,0.9708,0.9788,0.9779,0.9812,0.9849,0.9856,0.9897,0.9903,0.9962,0.9972,0.9958,1.0,0.9954,1.0008,1.001,1.001,0.9996,0.9853,0.9813,0.9718,0.9907,0.9905,0.9903,0,0.9566,0.9591,0.9563,0.962,0.9624,0.9615,0.9641,0.9648,0.9685,0.9713,0.9731,0.9785,0.9776,0.9837,0.9824,0.9859,0.9864,0.9884,0.9882,0.9883,0.9949,0.9846,0.9689,0.9673,0.9885,0.9887,0.9888,0,0.9437,0.9463,0.945,0.9466,0.9533,0.9524,0.9551,0.9591,0.9601,0.9623,0.963,0.965,0.966,0.9673,0.9729,0.9769,0.9708,0.9775,0.9729,0.9727,0.971,0.971,0.9548,0.9717,0.9718,0.9718,0.9718,0,0.9322,0.9301,0.9393,0.9384,0.9362,0.9434,0.941,0.9445,0.948,0.9477,0.9548,0.9543,0.9619,0.9622,0.9666,0.9647,0.9652,0.9672,0.9683,0.9664,0.9661,0.9667,0.9673,0.9714,0.9715,0.9716,0.9716,0,0.9173,0.9235,0.9225,0.9289,0.9305,0.9285,0.9339,0.9332,0.9375,0.937,0.9373,0.9438,0.9445,0.9504,0.9523,0.9553,0.9515,0.9541,0.9503,0.951,0.946,0.9463,0.9294,0.9274,0.9458,0.9456,0.9455,0,0.9095,0.9081,0.9144,0.9148,0.9172,0.9178,0.9189,0.9259,0.9267,0.9307,0.9294,0.9308,0.9322,0.9328,0.9376,0.939,0.9415,0.9355,0.9418,0.9398,0.9411,0.941,0.9407,0.9341,0.9338,0.9336,0.9335,0,0.8947,0.8978,0.8992,0.9016,0.9027,0.9049,0.9074,0.9073,0.915,0.9154,0.9163,0.9174,0.9195,0.9205,0.9228,0.9254,0.9305,0.9315,0.9305,0.9284,0.9261,0.927,0.9464,0.9318,0.932,0.9321,0.9322,0.9323,0.883,0.882,0.8863,0.8875,0.8902,0.8924,0.892,0.8963,0.8972,0.8996,0.9036,0.9038,0.9074,0.911,0.9131,0.9131,0.9162,0.9148,0.9144,0.9139,0.9127,0.9263,0.9136,0.9137,0.9137,0.9138,0.9138,0,0.8684,0.8716,0.8726,0.8761,0.8769,0.8821,0.8851,0.8854,0.8856,0.8886,0.8899,0.8907,0.8918,0.8967,0.8982,0.8973,0.8997,0.8974,0.8974,0.8978,0.91,0.9106,0.8954,0.8954,0.8954,0.8954,0.8954,0.8954,0.8609,0.8595,0.863,0.8629,0.866,0.8665,0.8677,0.8697,0.8721,0.8728,0.8738,0.8771,0.8807,0.8825,0.8836,0.885,0.8851,0.8819,0.884,0.8952,0.897,0.8987,0.8993,0.882,0.8819,0.8718,0.8717,0.8717]}]]